• In Portugal
  • List of Countries
  • For 7 days
  • Water Temperature
  • Satellite Maps
  • Weather Map
  • Weather Widgets
  • user-avatar
    Login

    Hourly Weather Bansko

    Today, 16 October, Tuesday

    Time Temperature Precipitation Wind Pressure Humidity
    00:00 +12°C° 0 mm 1 mps 725 mmHg 78%
    01:00 +12°C° 0 mm 1 mps 725 mmHg 79%
    02:00 +12°C° 0 mm 1 mps 725 mmHg 79%
    03:00 +12°C° 0 mm 1 mps 725 mmHg 78%
    04:00 +12°C° 0 mm 1 mps 725 mmHg 78%
    05:00 +12°C° 0 mm 1 mps 725 mmHg 78%
    06:00 +12°C° 0 mm 1 mps 725 mmHg 72%
    07:00 +13°C° 0 mm 1 mps 725 mmHg 67%
    08:00 +15°C° 0 mm 1 mps 725 mmHg 59%
    09:00 +18°C° 0 mm 1 mps 725 mmHg 51%
    10:00 +20°C° 0 mm 1 mps 726 mmHg 43%
    11:00 +23°C° 0 mm 1 mps 726 mmHg 35%
    12:00 +23°C° 0 mm 1 mps 725 mmHg 33%
    13:00 +24°C° 0 mm 1 mps 725 mmHg 31%
    14:00 +25°C° 0 mm 1 mps 725 mmHg 30%
    15:00 +24°C° 0 mm 1 mps 725 mmHg 33%
    16:00 +23°C° 0 mm 1 mps 725 mmHg 36%
    17:00 +22°C° 0 mm 1 mps 724 mmHg 39%
    18:00 +20°C° 0 mm 1 mps 724 mmHg 44%
    19:00 +18°C° 0 mm 1 mps 724 mmHg 49%
    20:00 +15°C° 0 mm 1 mps 724 mmHg 54%
    21:00 +14°C° 0 mm 1 mps 724 mmHg 55%
    22:00 +14°C° 0 mm 1 mps 724 mmHg 56%
    23:00 +13°C° 0 mm 1 mps 725 mmHg 57%

    Tomorrow, 17 October, Wednesday

    Time Temperature Precipitation Wind Pressure Humidity
    00:00 +13°C° 0 mm 1 mps 724 mmHg 58%
    01:00 +13°C° 0 mm 1 mps 724 mmHg 58%
    02:00 +13°C° 0 mm 1 mps 724 mmHg 59%
    03:00 +12°C° 0 mm 1 mps 724 mmHg 59%
    04:00 +12°C° 0 mm 1 mps 724 mmHg 59%
    05:00 +12°C° 0 mm 1 mps 723 mmHg 60%
    06:00 +13°C° 0 mm 1 mps 724 mmHg 57%
    07:00 +14°C° 0 mm 1 mps 724 mmHg 54%
    08:00 +15°C° 0 mm 1 mps 724 mmHg 52%
    09:00 +18°C° 0 mm 1 mps 724 mmHg 45%
    10:00 +21°C° 0 mm 1 mps 724 mmHg 39%
    11:00 +24°C° 0 mm 1 mps 724 mmHg 32%
    12:00 +24°C° 0 mm 1 mps 724 mmHg 31%
    13:00 +25°C° 0 mm 1 mps 723 mmHg 29%
    14:00 +26°C° 0 mm 1 mps 723 mmHg 28%
    15:00 +25°C° 0 mm 1 mps 723 mmHg 31%
    16:00 +24°C° 0 mm 1 mps 722 mmHg 34%
    17:00 +23°C° 0 mm 1 mps 722 mmHg 38%
    18:00 +20°C° 0 mm 1 mps 722 mmHg 43%
    19:00 +18°C° 0 mm 1 mps 722 mmHg 48%
    20:00 +15°C° 0 mm 1 mps 722 mmHg 53%
    21:00 +15°C° 0 mm 1 mps 722 mmHg 55%
    22:00 +14°C° 0 mm 1 mps 722 mmHg 56%
    23:00 +14°C° 0 mm 1 mps 722 mmHg 58%

    Day after tomorrow, 18 October, Thursday

    Time Temperature Precipitation Wind Pressure Humidity
    00:00 +14°C° 0 mm 1 mps 722 mmHg 59%
    01:00 +13°C° 0 mm 1 mps 722 mmHg 61%
    02:00 +13°C° 0 mm 1 mps 722 mmHg 62%
    03:00 +13°C° 0 mm 1 mps 722 mmHg 63%
    04:00 +13°C° 0 mm 1 mps 722 mmHg 64%
    05:00 +12°C° 0 mm 1 mps 722 mmHg 64%
    06:00 +13°C° 0 mm 1 mps 722 mmHg 62%
    07:00 +14°C° 0 mm 1 mps 722 mmHg 59%
    08:00 +15°C° 0 mm 1 mps 722 mmHg 56%
    09:00 +19°C° 0 mm 1 mps 722 mmHg 50%
    10:00 +21°C° 0 mm 1 mps 722 mmHg 43%
    11:00 +24°C° 0 mm 1 mps 722 mmHg 37%
    12:00 +25°C° 0 mm 1 mps 722 mmHg 36%
    13:00 +25°C° 0 mm 1 mps 722 mmHg 35%
    14:00 +26°C° 0 mm 1 mps 721 mmHg 33%
    15:00 +25°C° 0 mm 1 mps 721 mmHg 37%
    16:00 +24°C° 0 mm 1 mps 721 mmHg 40%
    17:00 +23°C° 0 mm 1 mps 720 mmHg 44%
    18:00 +21°C° 0 mm 1 mps 721 mmHg 50%
    19:00 +19°C° 0 mm 1 mps 721 mmHg 56%
    20:00 +16°C° 0 mm 1 mps 721 mmHg 62%
    21:00 +15°C° 0 mm 1 mps 721 mmHg 64%
    22:00 +15°C° 0 mm 1 mps 721 mmHg 67%
    23:00 +14°C° 0 mm 1 mps 722 mmHg 69%

    19 October, Friday

    Time Temperature Precipitation Wind Pressure Humidity
    00:00 +14°C° 0 mm 1 mps 722 mmHg 71%
    01:00 +14°C° 0 mm 1 mps 722 mmHg 72%
    02:00 +14°C° 0 mm 1 mps 722 mmHg 74%
    03:00 +13°C° 0 mm 1 mps 722 mmHg 75%
    04:00 +13°C° 0 mm 1 mps 721 mmHg 76%
    05:00 +13°C° 0 mm 1 mps 721 mmHg 77%
    06:00 +14°C° 0 mm 1 mps 722 mmHg 73%
    07:00 +15°C° 0 mm 1 mps 722 mmHg 70%
    08:00 +16°C° 0 mm 1 mps 722 mmHg 66%
    09:00 +19°C° 0 mm 1 mps 722 mmHg 58%
    10:00 +21°C° 0 mm 1 mps 723 mmHg 50%
    11:00 +24°C° 0 mm 1 mps 723 mmHg 42%
    12:00 +24°C° 0 mm 1 mps 722 mmHg 40%
    13:00 +25°C° 0 mm 2 mps 722 mmHg 37%
    14:00 +26°C° 0 mm 2 mps 722 mmHg 35%
    15:00 +25°C° 0 mm 2 mps 722 mmHg 38%
    16:00 +24°C° 0 mm 1 mps 722 mmHg 41%
    17:00 +23°C° 0 mm 1 mps 722 mmHg 44%
    18:00 +21°C° 0 mm 1 mps 722 mmHg 49%
    19:00 +19°C° 0 mm 1 mps 722 mmHg 54%
    20:00 +16°C° 0 mm 1 mps 722 mmHg 59%
    21:00 +15°C° 0 mm 1 mps 722 mmHg 61%
    22:00 +15°C° 0 mm 1 mps 722 mmHg 63%
    23:00 +14°C° 0 mm 1 mps 723 mmHg 65%

    20 October, Saturday

    Time Temperature Precipitation Wind Pressure Humidity
    00:00 +14°C° 0 mm 1 mps 723 mmHg 67%
    01:00 +14°C° 0 mm 1 mps 723 mmHg 70%
    02:00 +13°C° 0 mm 1 mps 723 mmHg 72%
    03:00 +13°C° 0 mm 1 mps 723 mmHg 73%
    04:00 +13°C° 0 mm 1 mps 722 mmHg 75%
    05:00 +12°C° 0 mm 1 mps 722 mmHg 77%
    06:00 +13°C° 0 mm 1 mps 723 mmHg 74%
    07:00 +14°C° 0 mm 1 mps 723 mmHg 71%
    08:00 +15°C° 0 mm 1 mps 723 mmHg 67%
    09:00 +18°C° 0 mm 1 mps 723 mmHg 57%
    10:00 +19°C° 0 mm 2 mps 723 mmHg 48%
    11:00 +23°C° 0 mm 2 mps 724 mmHg 38%
    12:00 +23°C° 0 mm 2 mps 723 mmHg 36%
    13:00 +24°C° 0 mm 2 mps 723 mmHg 33%
    14:00 +25°C° 0 mm 2 mps 723 mmHg 31%
    15:00 +24°C° 0 mm 2 mps 722 mmHg 34%
    16:00 +21°C° 0 mm 2 mps 722 mmHg 37%
    17:00 +20°C° 0 mm 2 mps 722 mmHg 40%
    18:00 +18°C° 0 mm 2 mps 722 mmHg 45%
    19:00 +18°C° 0 mm 1 mps 722 mmHg 50%
    20:00 +15°C° 0 mm 1 mps 722 mmHg 55%
    21:00 +14°C° 0 mm 1 mps 722 mmHg 58%
    22:00 +13°C° 0 mm 1 mps 722 mmHg 60%
    23:00 +13°C° 0 mm 1 mps 722 mmHg 62%

    21 October, Sunday

    Time Temperature Precipitation Wind Pressure Humidity
    00:00 +13°C° 0 mm 1 mps 722 mmHg 64%
    01:00 +12°C° 0 mm 1 mps 722 mmHg 66%
    02:00 +12°C° 0 mm 1 mps 722 mmHg 67%
    03:00 +12°C° 0 mm 1 mps 722 mmHg 68%
    04:00 +11°C° 0 mm 1 mps 721 mmHg 69%
    05:00 +11°C° 0 mm 1 mps 721 mmHg 70%
    06:00 +12°C° 0 mm 1 mps 721 mmHg 67%
    07:00 +13°C° 0 mm 1 mps 721 mmHg 64%
    08:00 +14°C° 0 mm 1 mps 721 mmHg 61%
    09:00 +16°C° 0 mm 1 mps 721 mmHg 55%
    10:00 +18°C° 0 mm 1 mps 721 mmHg 49%
    11:00 +20°C° 0 mm 1 mps 721 mmHg 43%
    12:00 +18°C° 0.5 mm 2 mps 721 mmHg 50%
    13:00 +17°C° 0.5 mm 2 mps 721 mmHg 57%
    14:00 +16°C° 0.5 mm 2 mps 720 mmHg 63%
    15:00 +15°C° 1.6 mm 2 mps 720 mmHg 71%
    16:00 +14°C° 1.6 mm 2 mps 720 mmHg 78%
    17:00 +13°C° 1.6 mm 1 mps 720 mmHg 85%
    18:00 +13°C° 1.4 mm 1 mps 720 mmHg 87%
    19:00 +12°C° 1.4 mm 1 mps 720 mmHg 88%
    20:00 +12°C° 1.4 mm 1 mps 721 mmHg 89%
    21:00 +12°C° 0.9 mm 1 mps 721 mmHg 89%
    22:00 +12°C° 0.9 mm 1 mps 721 mmHg 90%
    23:00 +12°C° 0.9 mm 1 mps 721 mmHg 90%
    Show more